Location: Aulagny
(45.1643°N, 4.3096°E)
Time: 02:12:38
(UTC+00:00)

Cosmos 2082 Rocket - Pass Details

Date: 21 October 2019
Orbit: 832 x 854 km, 71.0° (Epoch: 16 November)

Event Time Altitude Azimuth Distance (km) Brightness Sun altitude
Rises 19:41:44 0° 321° (NW) 3,429 6.1 -31.1°
Reaches altitude 10° 19:44:45 10° 307° (NW) 2,485 5.4 -31.6°
Maximum altitude 19:48:53 21° 260° (W) 1,818 4.4 -32.3°
Drops below altitude 10° 19:53:00 10° 213° (SSW) 2,462 4.7 -33.0°
Enters shadow 19:54:00 - 206° (SSW) 2,750 4.9 -33.1°
